EHI
0 0 2 4 6 7 7 5 2 2 1 0 0 0 0 0 1 2 1 0 0 0 0 0 0 0 0 1 2 2 1 0 0 0 0 0 0 0 0 0 0 0 0
0 1 3 5 6 7 7 5 4 3 2 1 1 1 1 1 1 1 1 0 0 0 0 0 0 0 0 0 1 1 0 0 0 0 0 0 0 0 0 0 0 0 0
0 1 3 5 5 5 4 4 4 4 4 4 3 2 2 2 2 1 0 0 0 0 0 0 0 0 0 0 0 0 0 0 0 0 0 0 0 0 0 0 0 0 0
0 0 2 4 5 5 5 4 4 5 4 3 3 3 2 2 1 0 0 0 0 0 0 0 0 0 0 0 0 0 0 0 0 0 0 0 0 0 0 0 0 0 0
0 0 2 5 6 8 7 5 6 5 3 2 2 1 1 1 0 0 0 0 0 0 0 0 0 0 0 0 0 0 0 0 0 0 0 0 0 0 0 0 0 0 0
0 0 2 6 9 10 8 6 5 5 3 2 1 1 1 0 0 0 0 0 0 0 0 0 0 0 0 0 0 0 0 0 0 0 0 0 0 0 0 0 0 0 0
0 0 2 4 7 8 6 4 4 4 4 4 3 2 2 1 0 0 0 0 0 0 0 0 0 0 0 0 0 0 0 0 0 0 0 0 0 1 1 1 0 0 0
0 0 0 1 3 3 2 3 3 3 3 3 3 2 2 1 0 0 0 0 0 0 0 0 0 0 0 0 0 0 0 0 0 0 0 0 0 1 2 1 0 0 0
0 0 0 0 0 0 0 1 2 2 1 1 1 1 1 1 0 0 0 0 0 0 0 0 0 0 0 0 0 0 0 0 0 0 0 0 0 1 2 2 1 0 0
0 0 0 0 0 0 0 0 0 0 0 0 0 0 0 0 0 0 0 0 0 0 0 0 0 0 0 0 0 0 0 0 0 0 0 0 0 1 3 2 1 0 0
0 0 0 0 0 0 0 0 0 0 0 0 0 0 0 0 0 0 0 0 0 0 0 0 0 0 0 0 0 0 0 0 0 0 0 0 0 1 2 2 1 0 0
0 0 0 0 0 0 0 0 0 0 0 0 0 0 0 0 0 0 0 1 0 0 0 0 0 0 0 0 0 0 0 0 0 0 0 0 1 1 1 1 1 0 0
0 0 0 0 0 0 0 0 0 0 0 0 0 0 0 0 0 0 0 0 0 0 0 0 1 0 0 0 0 0 0 0 0 0 1 2 2 2 2 3 2 1 0
0 0 0 0 0 0 0 0 0 0 0 0 0 0 0 0 0 0 0 0 1 1 0 0 0 0 0 0 0 0 0 0 0 0 1 3 5 6 7 5 3 1 0
0 0 0 0 0 0 0 0 0 0 0 0 0 0 0 0 0 0 0 0 1 1 0 0 0 0 0 0 0 0 0 0 0 0 1 4 7 10 10 8 4 1 0
0 0 0 0 0 0 0 0 0 0 0 0 0 0 0 0 0 0 0 0 1 1 0 0 0 0 0 0 0 0 0 0 0 0 0 2 6 10 11 9 4 1 0
0 0 0 0 0 0 0 0 0 0 0 0 0 0 0 0 0 0 0 0 0 0 0 0 0 0 0 0 0 0 0 0 0 0 0 1 2 5 8 7 4 2 1
0 0 0 0 0 0 0 0 0 0 0 0 0 0 0 0 0 0 0 0 0 0 0 0 0 0 0 0 0 0 0 0 0 0 0 0 0 1 2 3 4 3 1
0 0 0 0 0 0 0 0 0 0 0 0 0 0 0 0 0 0 0 0 0 0 0 0 0 0 0 0 0 0 0 0 0 0 0 0 0 0 0 1 2 2 1
0 0 0 0 0 0 0 0 0 0 0 0 0 0 0 0 0 0 0 0 0 0 0 0 0 0 0 0 0 0 0 0 0 0 0 0 0 0 0 0 1 1 0
0 0 0 0 0 0 0 0 0 0 0 0 0 0 0 0 0 0 0 0 0 0 0 0 0 0 0 0 0 0 0 0 0 0 0 0 0 0 0 0 0 0 0
0 0 0 0 0 0 0 0 0 0 0 0 0 0 0 0 0 0 0 0 0 0 0 0 0 0 0 0 0 0 0 0 0 0 0 0 0 0 0 0 0 0 0
0 0 0 0 0 0 0 0 0 0 0 0 0 0 0 0 0 0 0 0 0 0 0 0 0 0 0 0 0 0 0 0 0 0 0 0 0 0 0 0 0 0 0
0 0 0 0 0 0 0 0 0 0 0 0 0 0 0 0 0 0 0 0 0 0 0 0 0 0 0 0 0 0 0 0 0 0 0 0 0 0 0 0 0 0 0
0 0 0 0 0 0 0 0 0 0 0 0 0 0 0 0 0 0 0 0 0 0 0 0 0 0 0 0 0 0 0 0 0 0 0 0 0 0 0 0 0 0 0
0 0 0 0 0 0 0 0 0 0 0 0 0 0 0 0 0 0 0 0 0 0 0 0 0 0 0 0 0 0 0 0 0 0 0 0 0 0 0 0 0 0 0
Wind_Speed
3 5 10 10 9 9 8 8 7 7 7 6 6 6 6 6 6 6 6 6 5 5 5 5 6 6 6 6 6 6 6 6 6 5 6 6 6 7 7 8 8 5 9
7 7 11 10 9 8 8 7 7 7 6 6 6 5 5 5 5 5 4 4 4 4 4 4 4 5 4 5 5 5 5 5 5 4 3 4 5 6 7 8 8 5 8
8 7 9 10 9 8 8 7 6 6 6 5 5 4 4 4 4 4 3 3 3 3 3 3 3 3 3 3 3 4 4 4 5 3 2 2 2 5 7 7 7 8 8
8 6 7 9 9 8 7 6 6 5 5 5 4 4 4 4 4 3 3 3 2 2 2 2 1 2 1 1 2 3 4 4 5 3 1 2 2 5 6 6 7 7 7
6 4 5 8 8 7 6 5 5 5 5 5 5 5 5 5 5 5 4 4 4 3 3 3 3 2 1 0 1 3 4 5 5 3 1 2 2 5 6 6 6 6 6
5 3 4 7 6 5 5 4 4 4 5 5 5 5 5 6 6 6 6 6 5 5 5 4 4 3 3 2 2 3 4 5 3 1 1 3 3 6 6 6 6 6 6
4 3 3 5 5 5 4 4 4 4 5 5 6 6 6 7 7 7 7 7 7 6 6 6 5 5 4 4 3 4 4 4 1 0 2 3 4 7 7 6 6 6 6
4 3 2 3 4 3 3 3 4 4 5 5 6 6 7 7 8 8 8 9 8 8 8 7 7 7 6 6 5 5 5 4 1 1 1 3 6 8 7 7 6 6 6
3 2 1 0 0 1 3 4 4 5 6 7 7 8 7 8 9 9 9 9 10 10 10 9 9 8 8 7 7 7 6 5 2 1 2 3 7 9 8 7 7 6 6
2 2 1 1 1 1 2 4 5 5 6 7 8 9 8 9 9 9 9 9 10 11 11 11 10 10 9 9 9 8 8 5 2 2 2 4 9 10 9 8 7 7 7
2 1 1 1 1 2 2 4 4 5 5 6 6 8 7 4 4 5 7 9 11 11 11 11 11 11 10 10 10 10 7 2 2 2 3 7 10 10 10 9 8 8 7
1 1 1 1 1 2 2 2 2 3 3 4 3 4 3 3 3 5 7 9 10 10 10 11 11 11 8 4 6 8 3 3 3 3 4 9 11 12 11 10 10 9 8
2 2 2 2 2 2 2 2 2 2 2 3 4 4 3 3 3 3 2 4 4 6 4 5 6 4 4 3 3 3 3 3 3 3 5 11 12 13 12 11 11 10 9
3 3 2 3 3 3 2 2 2 2 2 2 3 4 2 2 2 2 2 2 2 2 2 2 2 4 5 5 5 4 4 3 3 3 5 12 13 14 13 13 12 11 10
3 2 2 3 3 3 3 3 3 2 2 3 2 3 2 2 3 3 2 2 3 2 2 2 3 3 4 4 4 5 5 5 5 4 4 11 14 14 14 14 13 12 12
3 2 2 3 3 3 3 3 3 3 3 2 2 3 2 2 2 2 3 3 3 2 2 3 3 3 3 3 4 4 4 4 4 5 4 7 13 14 14 15 14 13 13
3 2 2 2 4 4 4 4 3 3 3 2 2 2 2 2 2 1 2 2 3 3 3 2 3 2 2 2 3 3 3 3 4 4 4 4 5 11 13 14 15 14 14
3 3 3 4 4 4 3 4 3 3 3 3 2 2 3 2 2 1 1 2 3 2 2 2 2 2 2 2 2 2 2 2 3 4 4 4 4 5 8 13 14 14 15
4 3 3 3 3 3 3 3 3 3 3 3 3 3 3 3 3 2 2 2 2 1 1 2 2 2 2 2 2 2 2 2 3 4 4 5 5 5 5 9 13 14 14
3 3 3 3 2 3 3 3 3 4 3 3 3 3 4 3 3 2 2 2 2 1 1 1 2 2 2 2 3 2 2 2 3 3 5 4 4 6 6 6 6 9 13
4 4 3 2 2 2 2 2 3 3 3 3 3 4 4 4 3 2 2 2 1 1 1 2 1 1 2 1 0 1 2 3 3 3 3 4 5 6 6 6 5 5 6
3 3 3 2 1 2 1 1 1 2 3 3 3 4 4 4 4 3 2 2 2 1 1 1 1 1 1 2 2 1 1 2 2 3 3 4 5 4 6 7 6 7 5
3 2 2 1 1 1 2 1 2 2 3 3 4 4 4 4 4 3 3 2 2 1 1 2 1 1 1 1 2 2 2 2 2 2 2 3 3 3 4 5 7 7 7
3 2 2 1 0 1 2 2 2 2 2 3 3 3 5 4 4 4 3 2 2 1 1 2 1 1 2 2 1 2 2 2 1 2 2 1 2 3 4 5 6 7 7
4 3 2 1 1 2 2 2 1 2 2 3 3 4 4 4 4 4 3 2 2 1 2 2 2 2 2 2 2 2 1 1 2 2 2 1 1 2 3 4 3 5 7
3 2 2 1 1 2 2 2 1 2 3 4 4 4 4 3 3 4 4 3 2 2 2 2 2 2 2 2 2 2 2 2 2 2 3 2 2 2 2 3 3 4 5
Wind_Direction
160 163 151 142 134 130 130 131 131 130 128 127 126 123 116 110 105 99 92 88 86 81 77 72 65 68 67 64 64 65 64 62 65 69 72 75 76 77 90 93 89 85 92
158 164 153 143 139 137 135 136 137 137 135 136 136 136 132 125 119 115 109 102 101 95 84 77 69 70 67 59 54 56 54 51 48 56 78 83 85 86 94 99 98 98 98
147 156 152 148 147 144 143 145 145 145 147 149 149 151 152 151 145 139 138 134 129 124 111 97 87 78 67 54 41 39 38 32 23 27 101 117 106 103 102 104 105 102 103
144 146 149 150 149 150 151 155 157 160 163 166 169 175 180 183 184 182 180 176 170 165 160 155 141 116 86 47 19 12 13 10 9 25 104 163 149 122 116 112 111 108 109
127 133 147 147 150 155 159 163 165 170 177 184 190 200 206 208 209 211 210 207 206 205 201 197 187 180 181 230 331 340 346 353 5 38 93 136 139 136 127 121 119 117 115
122 130 144 143 148 152 158 167 176 190 200 206 207 217 224 227 227 225 222 224 224 223 222 211 205 205 205 222 265 302 323 339 9 52 136 152 156 148 138 134 128 128 125
128 133 143 141 149 156 167 181 194 206 216 223 225 227 231 235 236 234 229 230 230 230 226 216 212 218 219 224 245 270 297 321 343 109 168 171 171 155 147 145 140 137 134
134 133 133 149 159 174 184 193 214 223 226 232 239 238 238 240 239 237 235 234 233 231 227 218 218 225 228 229 239 253 274 294 319 38 183 187 177 159 154 152 147 145 143
115 115 97 27 272 242 234 232 240 245 247 247 248 247 246 244 243 242 239 238 235 230 227 221 220 225 230 232 237 246 259 276 279 241 221 197 185 166 160 156 153 153 150
99 97 82 351 332 305 290 267 264 262 264 265 261 258 254 250 246 247 245 244 240 233 228 224 222 225 230 233 237 245 254 267 261 244 226 207 193 176 166 161 156 155 156
82 52 44 357 332 305 289 289 292 282 277 277 272 267 264 255 252 254 252 248 244 239 233 227 225 226 230 234 238 244 251 238 238 240 223 217 198 183 173 168 164 161 160
70 38 29 17 354 336 323 329 306 294 287 279 270 268 264 250 249 254 261 258 248 242 237 232 229 229 229 227 240 247 239 233 231 238 228 219 203 189 180 175 172 168 165
110 72 52 51 32 9 330 317 302 296 292 283 276 266 260 258 261 260 265 273 261 247 239 240 233 225 216 213 222 228 234 229 223 232 230 219 206 195 186 179 177 174 171
83 65 42 36 26 9 358 331 315 311 302 291 280 274 260 259 259 258 250 252 248 241 232 234 230 227 222 217 218 225 229 226 221 220 226 219 207 198 191 183 180 178 176
87 66 36 40 34 16 3 333 341 320 310 303 298 291 263 255 260 257 255 248 244 233 228 230 233 234 230 225 221 224 226 228 228 222 222 217 206 199 194 188 183 182 181
94 77 40 50 35 22 4 344 333 327 318 319 322 313 301 269 261 258 259 258 248 233 229 228 229 232 229 223 226 223 223 225 229 219 215 213 206 200 195 192 188 186 185
111 80 41 64 41 25 6 352 348 333 334 336 326 321 321 300 281 269 265 262 255 238 231 235 240 235 239 237 232 225 223 217 215 211 206 204 209 207 201 197 193 190 189
109 83 43 45 43 26 10 353 341 338 341 337 331 331 335 333 323 308 288 274 266 248 230 232 229 232 243 241 237 240 232 215 215 211 201 199 205 210 209 204 197 194 194
118 102 69 50 43 23 7 352 343 340 340 333 333 329 331 337 337 327 300 289 281 252 236 250 221 213 228 239 239 237 235 223 215 213 205 204 205 210 208 211 203 196 196
106 93 78 56 37 18 2 352 348 349 341 336 333 325 329 329 333 334 310 310 312 281 247 244 236 221 219 221 253 259 248 235 221 212 208 202 207 213 207 206 202 203 201
86 81 71 59 22 15 3 352 342 336 327 328 327 330 330 330 332 333 326 316 318 285 264 255 232 231 233 186 167 292 277 244 229 221 208 195 208 214 203 201 196 194 203
107 96 76 63 38 11 339 308 286 293 299 299 318 331 330 328 327 333 331 317 308 301 319 306 250 225 230 171 154 166 294 308 265 229 206 205 210 206 206 206 199 198 197
125 125 103 94 62 7 351 344 343 348 337 340 337 332 326 325 324 325 319 317 315 313 288 276 241 196 224 228 183 172 183 230 287 289 222 211 201 201 204 199 201 203 202
163 150 129 129 92 337 3 12 0 351 327 305 305 311 321 328 330 327 322 319 317 311 293 281 255 214 196 218 232 217 206 187 201 304 311 249 211 208 210 211 204 203 202
168 158 153 156 281 323 356 8 5 339 311 310 320 331 334 330 332 334 331 330 318 305 292 287 283 250 207 201 206 209 213 214 205 202 266 285 269 228 210 205 203 204 202
168 164 156 153 286 320 347 6 9 342 339 345 340 339 335 328 327 333 329 331 318 306 301 291 275 260 237 225 217 205 191 196 203 197 228 251 257 256 229 209 206 209 206